Overview Statistics Trail Chart Weather Telemetry Raw packets
 

This is the latest recevied weather packets stored in our database for station/object KG5MMT-15. If no packets are shown the sender has not sent any weather packets the latest 10 day(s).

<< 101 102 103 104 105 106 107 >>
Time Temp. Humidity Pressure Rain* Wind** Luminosity Snow
1787944079 27.78° C 27% 0 hPa 0 mm - - -
1787943779 28.33° C 27% 0 hPa 0 mm - - -
1787943484 28.33° C 26% 0 hPa 0 mm - - -
1787943179 28.89° C 27% 0 hPa 0 mm - - -
1787942879 28.89° C 25% 0 hPa 0 mm - - -
1787942579 28.33° C 27% 0 hPa 0 mm - - -
1787942279 27.78° C 27% 0 hPa 0 mm - - -
1787941979 28.33° C 27% 0 hPa 0 mm - - -
1787941679 28.89° C 25% 0 hPa 0 mm - - -
1787941380 29.44° C 24% 0 hPa 0 mm - - -
1787941079 28.89° C 25% 0 hPa 0 mm - - -
1787940779 28.89° C 25% 0 hPa 0 mm - - -
1787940479 28.89° C 24% 0 hPa 0 mm - - -
1787940179 28.89° C 25% 0 hPa 0 mm - - -
1787939879 28.89° C 25% 0 hPa 0 mm - - -
1787939579 28.89° C 25% 0 hPa 0 mm - - -
1787939279 28.33° C 26% 0 hPa 0 mm - - -
1787938979 28.89° C 29% 0 hPa 0 mm - - -
1787938679 28.89° C 26% 0 hPa 0 mm - - -
1787938379 28.33° C 28% 0 hPa 0 mm - - -
1787938079 27.78° C 28% 0 hPa 0 mm - - -
1787937779 28.33° C 28% 0 hPa 0 mm - - -
1787937479 28.33° C 27% 0 hPa 0 mm - - -
1787937179 27.78° C 30% 0 hPa 0 mm - - -
1787936879 27.22° C 30% 0 hPa 0 mm - - -

* Rain latest hour (hover to see other rain measurements)
** Current wind speed in m/s (hover to see current wind gust speed)